Flag for Latvia Weather past 2 weeks in Jelgava, Latvia

Now
57 °F

Light rain. Fog.


Feels Like: 57 °F
Forecast: 42 / 53 °F
Wind: 1 mph from East

Location: Riga Airport

Current Time: Sep 22, 2014 at 8:04:09 PM

Latest Report: Sep 22, 2014 at 7:20 PM


Visibility: 3 mi

Pressure: 29.53 "Hg

Humidity: 94%

Dew point: 55 °F

Location of JelgavaLocation

Historic Weather in Jelgava — Graph

°F

Jelgava temperature yesterday

Maximum temperature yesterday: 64 °F (at 4:50 PM)
Minimum temperature yesterday: 43 °F (at 5:50 AM)
Average temperature yesterday: 53 °F

Past Weeks' High & Low Weather Summary

 TemperatureHumidityPressure
High75 °F (Sep 8, 2:50 PM)100% (Sep 8, 1:20 AM)30.45 "Hg (Sep 8, 1:20 AM)
Low39 °F (Sep 16, 6:20 AM)46% (Sep 18, 5:20 PM)29.53 "Hg (Sep 22, 5:50 PM)
Average57 °F85%30.14 "Hg
* Reported Sep 7 6:20 PM — Sep 22 6:50 PM, Jelgava, Weather by CustomWeather, © 2014

Note: Actual official high and low records may vary slightly from our data, if they occured in-between our weather recording intervals... More about our weather records

Advertising

Jelgava weather history for previous 24 hours

 ConditionsComfort  
Time TempWeatherWind HumidityBarometerVisibility
6:50 PM
Sep 22
57 °FLight rain. Fog.1 mph94%29.53 "Hg3 mi
6:20 PM57 °FCloudy.2 mph94%29.56 "Hg4 mi
5:50 PM57 °FCloudy.2 mph94%29.53 "Hg4 mi
5:20 PM57 °FMostly cloudy.3 mph94%29.56 "Hg5 mi
4:50 PM57 °FMostly cloudy.5 mph94%29.56 "Hg4 mi
4:20 PM57 °FLight rain. Low clouds.5 mph94%29.56 "Hg4 mi
3:50 PM57 °FLight rain. Low clouds.6 mph94%29.56 "Hg4 mi
3:20 PM57 °FLight rain. Low clouds.5 mph94%29.56 "Hg6 mi
2:50 PM57 °FLight rain. Low clouds.5 mph94%29.56 "Hg4 mi
2:20 PM57 °FLight rain. Low clouds.6 mph94%29.56 "Hg4 mi
1:50 PM55 °FLight rain. Low clouds.5 mph100%29.56 "Hg4 mi
1:20 PM55 °FLight rain. Low clouds.7 mph100%29.56 "Hg4 mi
12:50 PM55 °FLight rain. Low clouds.8 mph100%29.56 "Hg4 mi
12:20 PM55 °FLight rain. Fog.7 mph94%29.56 "Hg2 mi
11:50 AM55 °FLight rain. Fog.8 mph94%29.56 "Hg2 mi
11:20 AM55 °FLight rain. Fog.7 mph94%29.56 "Hg2 mi
10:50 AM54 °FLight rain. Fog.7 mph100%29.56 "Hg2 mi
10:20 AM54 °FRain. Fog.8 mph100%29.56 "Hg2 mi
9:50 AM54 °FRain. Fog.8 mph100%29.56 "Hg2 mi
9:20 AM54 °FLight rain. Fog.7 mph100%29.56 "Hg2 mi
8:50 AM54 °FLight rain. Fog.8 mph100%29.56 "Hg1 mi
8:20 AM54 °FLight rain. Fog.7 mph100%29.56 "Hg2 mi
7:50 AM54 °FLight rain. Fog.8 mph100%29.56 "Hg1 mi
7:20 AM54 °FLight rain. Fog.9 mph100%29.56 "Hg2 mi
6:50 AM54 °FLight rain. Fog.10 mph100%29.56 "Hg3 mi
6:20 AM54 °FLight rain. Fog.10 mph100%29.56 "Hg3 mi
5:50 AM54 °FLight rain. Fog.12 mph100%29.56 "Hg3 mi
5:20 AM54 °FLight rain. Fog.12 mph100%29.56 "Hg3 mi
4:50 AM54 °FLight rain. Fog.10 mph100%29.56 "Hg3 mi
4:20 AM54 °FLight rain. Passing clouds.12 mph100%29.59 "Hg4 mi
3:50 AM54 °FPassing clouds.10 mph94%29.59 "Hg5 mi
3:20 AM54 °FPassing clouds.10 mph94%29.59 "Hg5 mi
2:50 AM54 °FPassing clouds.12 mph94%29.59 "Hg5 mi
2:20 AM54 °FPassing clouds.10 mph94%29.59 "Hg6 mi
1:50 AM54 °FPassing clouds.12 mph94%29.62 "HgN/A
1:20 AM54 °FLight rain. Clear.10 mph94%29.62 "HgN/A
12:50 AM54 °FLight rain. Clear.12 mph94%29.62 "HgN/A
12:20 AM55 °FClear.12 mph88%29.62 "Hg10 mi
11:20 PM
Sep 21
55 °FClear.10 mph88%29.65 "Hg10 mi
10:50 PM55 °FPassing clouds.10 mph88%29.65 "HgN/A
10:20 PM55 °FPassing clouds.10 mph88%29.68 "HgN/A
9:20 PM55 °FPassing clouds.9 mph88%29.68 "HgN/A
8:50 PM55 °FClear.5 mph88%29.68 "Hg10 mi
8:20 PM57 °FSunny.6 mph82%29.68 "Hg10 mi
Weather by CustomWeather, © 2014

See weather overviewHow to use our weather pages